sat.trackr.live / text

‹ back to catalog

STARLINK-1226

NORAD 45229 · 2020-012BD

PAYLOAD ACTIVE UNKNOWN

§ Identity

Operator
Country
US
Launch date
2020-02-17
Launch site
AFETR
Launch vehicle
Mass (kg)
RCS (m²)

Purposes: comms

External: N2YO · Heavens-Above · Gunter

§ Orbital elements

Epoch: 2026-09-12T00:46:50.351808Z

Period
92.62 min
Inclination
53.1498°
Eccentricity
0.0002633
Mean motion
15.54731042 rev/d
Perigee alt
401.1 km
Apogee alt
404.7 km
Semi-major
6,781.1 km
B*
9.2400e-4
RAAN
194.5199°
Arg perigee
97.4098°
Mean anomaly
262.7213°
Rev number
36,420

§ Raw data

STARLINK-12261 45229U 20012BD  26255.03252722  .00062458  00000+0  92400-3 0  99922 45229  53.1498 194.5199 0002633  97.4098 262.7213 15.54731042364203

JSON: /api/v1/satellites/45229 · /tle

For live sub-satellite position, see the globe view (requires WebGL).

§ Visibility from observer

Set your observer location to see the next 7 days of passes ≥ 10°. The values pass through the URL so the page stays shareable.

No JS? Fill the form by hand. The geolocation button needs JavaScript.